Miscellaneous Local Product
Issued by NWS North Platte, NE

Home | Current Version | Previous Version | Text Only | Print | Product List | Glossary On
Versions: 1 2 3 4 5 6 7 8 9 10 11 12 13 14 15 16 17 18 19 20 21 22 23 24 25 26 27 28 29 30 31 32 33 34 35 36 37 38 39 40 41 42 43 44 45 46 47 48 49 50
000
AXUS43 KLBF 182010
MISLBF


WESTERN AND NORTH CENTRAL NEBRASKA HOURLY WEATHER ROUNDUP
NATIONAL WEATHER SERVICE NORTH PLATTE NE
300 PM CDT THU APR 18 2024

NOTE: "FAIR" INDICATES FEW OR NO CLOUDS BELOW 12,000 FEET WITH NO
SIGNIFICANT WEATHER AND/OR OBSTRUCTIONS TO VISIBILITY.

NOTE: STATIONS NOT REPORTING SKY/WEATHER AND PRESSURE ARE
PROVIDED BY RAWS AND APRS NETWORKS AND ARE NOT UNDER NATIONAL
WEATHER SERVICE QUALITY CONTROL.

...OBSERVATIONS IN AND NEAR THE EASTERN PANHANDLE OF NEBRASKA...

CITY           SKY/WX    TMP DP  RH WIND       PRES   REMARKS
PINE RIDGE     SUNNY     46  16  30 NW15G26   30.19F
GORDON         MOSUNNY   45  18  33 W22G28    30.19S
CHADRON        MOSUNNY   46  19  34 NW23G37   30.23F
ALLIANCE       PTSUNNY   42  21  43 NW14G23   30.22F
GURLEY         CLOUDY    41  30  65 NW9       30.22F
SIDNEY         CLOUDY    40  27  59 N9G20     30.24F
LODGEPOLE      CLOUDY    40  28  62 NW13      30.23F
CRESCENT LAKE    N/A     44  22  42 NW13G20     N/A
$$

...OBSERVATIONS IN NORTHERN NEBRASKA AND FAR SOUTHERN SOUTH DAKOTA...

CITY           SKY/WX    TMP DP  RH WIND       PRES   REMARKS
WINNER         CLOUDY    45  25  45 MISG      30.22S
VALENTINE      PTSUNNY   46  21  37 NW14G32   30.22F
AINSWORTH      CLOUDY    44  21  39 NW13G18   30.23F
O`NEILL        PTSUNNY   48  25  40 NW22G30   30.22S
THEDFORD       PTSUNNY   45  25  46 NW10      30.25S
BROKEN BOW     MOSUNNY   50  32  50 NW16G24   30.22S
ORD            MOSUNNY   53  29  39 NW17      30.21S
ALBION         MOSUNNY   50  30  45 N15G25    30.20S
EWING            N/A     48  34  58 NW15G24     N/A
CHAMBERS         N/A     49  31  49 NW6G14      N/A
BUTTE            N/A     43  27  52 W15G25      N/A
SPRINGVIEW       N/A     48  27  44 NW10G25     N/A
VALENTINE NWR    N/A     45  23  41 NW13G22     N/A
HALSEY           N/A     47  28  47 W9G17       N/A
$$

...OBSERVATIONS IN SOUTHWEST NEBRASKA AND FAR NORTHEAST COLORADO...

CITY           SKY/WX    TMP DP  RH WIND       PRES   REMARKS
STERLING       CLOUDY    41  23  48 NW5       30.26S
HOLYOKE        PTSUNNY   46  25  42 N6        30.27S
IMPERIAL       CLOUDY    46  25  43 N9G20     30.25F
GRANT          MOSUNNY   45  23  42 NW18G24   30.25F
OGALLALA       CLOUDY    49  28  42 NW14G23   30.26F
NORTH PLATTE   PTSUNNY   50  30  46 NW15G22   30.25S
MCCOOK         CLOUDY    49  25  39 N18       30.24F
LEXINGTON      PTSUNNY   47  30  50 N12G20    30.25F
STAPLETON        N/A     43  32  65 NW10        N/A
$$

...OBSERVATIONS IN CENTRAL LINCOLN COUNTY AREA...

CITY           SKY/WX    TMP DP  RH WIND       PRES   REMARKS
N.P. AIRPORT   PTSUNNY   50  30  46 NW15G22   30.25S
N.P. HILLCREST   N/A     45  28  50 W12G20      N/A
N.P. DOWNTOWN    N/A     47  29  50 NW5G13      N/A
N.P. SOUTHEAST   N/A     47  27  46 N7G16       N/A
$$

...OBSERVATIONS ACROSS THE ROCKIES AND WESTERN HIGH PLAINS...

CITY           SKY/WX    TMP DP  RH WIND       PRES   REMARKS
SCOTTSBLUFF    CLOUDY    46  19  34 NW12G25   30.24F
KIMBALL        CLOUDY    35  25  68 N6        30.25S
CHEYENNE       CLOUDY    30  21  69 CALM      30.21F
DENVER         CLOUDY    32  29  88 E10       30.23S FOG
WINTER PARK    CLOUDY    44  30  57 NE5       30.08F
STEAMBOAT      PTSUNNY   45  25  45 NW9       30.10F
COPPER MTN     CLOUDY    37  25  60 W21G43    30.20R HAZE
LEADVILLE      LGT RAIN  42  23  46 NW12G29   30.12S
ASPEN          CLOUDY    53  31  42 N10G21    30.08S
MONARCH MTN    CLOUDY    36  16  44 W40G58    30.31R
GUNNISON       PTSUNNY   62  22  21 W25G37    30.05F
TELLURIDE      MOSUNNY   55  12  18 W13G24    30.19F
LARAMIE        FLURRIES  30  24  78 NE7       30.15F
CASPER         CLOUDY    35  19  52 VRB3      30.22F
GILLETTE       SUNNY     40  11  30 NW18G31   30.22F
SHERIDAN       SUNNY     38  19  46 NW17      30.26S
JACKSON        SUNNY     34   7  32 NE5       30.18F
YELLOWSTONE      N/A     25  11  55 CALM      30.19F
$$

...OBSERVATIONS ACROSS THE NORTHERN PLAINS...

CITY           SKY/WX    TMP DP  RH WIND       PRES   REMARKS
RAPID CITY     MOSUNNY   47  17  30 N14G25    30.19F
PIERRE         CLOUDY    47  23  38 W23       30.18S
SIOUX FALLS    PTSUNNY   50  27  40 NW20G35   30.15S
ABERDEEN       CLOUDY    45  20  36 NW22G35   30.12R
WILLISTON      PTSUNNY   32  19  59 NW26G35   30.12F WCI  18
DICKINSON      CLOUDY    34  21  59 W33G43    30.10R WCI  20
BISMARCK       CLOUDY    38  19  46 NW21G36   30.09F
FARGO          CLOUDY    42  21  43 W28G43    30.01S
GRAND FORKS    CLOUDY    38  24  57 W22G31    29.95R
$$

...OBSERVATIONS ACROSS THE CENTRAL AND SOUTHERN PLAINS...

CITY           SKY/WX    TMP DP  RH WIND       PRES   REMARKS
GRAND ISLAND   PTSUNNY   54  27  35 N18G29    30.21R
LINCOLN        SUNNY     58  33  39 N20G30    30.16S
OMAHA          MOSUNNY   55  34  45 NW23G31   30.14R
DES MOINES     CLOUDY    50  43  77 N8        30.10R
KANSAS CITY    CLOUDY    50  47  89 N20G28    30.02R
WICHITA        CLOUDY    54  45  71 N23G39    30.06S
DODGE CITY     SUNNY     58  33  39 N26G38    30.15F
OKLAHOMA CITY  CLOUDY    62  48  60 N24       30.00R
DALLAS         PTSUNNY   82  71  69 S6        29.88F
AMARILLO       SUNNY     58  38  47 N18G29    30.14R
$$

...OBSERVATIONS ACROSS THE COUNTRY...

CITY           SKY/WX    TMP DP  RH WIND       PRES   REMARKS
NEW YORK       DRIZZLE   46  40  79 NE20G28   30.12F
MIAMI          PTSUNNY   82  65  56 SE12      30.05F
PHOENIX        CLOUDY    89  26  10 CALM      29.89F
LOS ANGELES    MOSUNNY   68  54  60 MISG      29.99R
SAN FRANCISCO  MOSUNNY   69  54  58 NW17      29.94F
SEATTLE        MOSUNNY   59  36  42 N12G21    30.25F
$$



USA.gov is the U.S. government's official web portal to all federal, state and local government web resources and services.